Location: Caltech
(34.1382°N, 118.1253°W)
Time: 23:47:34
(UTC-07:00)

SL-08 R/B - Visible Passes

Search period start: 06 July 2015 00:00
Search period end: 16 July 2015 00:00
Orbit: 676 x 740 km, 98.2° (Epoch: 06 July)

Date Brightness Start Highest point End Pass type
(mag) Time Alt. Az. Time Alt. Az. Time Alt. Az.
06 Jul 3.3 02:58:43 78° ESE 02:58:56 81° ENE 03:03:56 10° N visible
07 Jul 5.3 02:04:48 21° E 02:05:50 23° ENE 02:09:45 10° NNE visible
07 Jul 4.2 03:43:48 33° W 03:43:48 33° W 03:48:00 10° NNW visible
08 Jul 3.6 02:49:53 64° E 02:50:09 66° ENE 02:55:05 10° N visible
08 Jul 5.5 04:28:54 11° W 04:28:54 11° W 04:29:37 10° WNW visible
09 Jul 5.6 01:55:58 17° E 01:57:05 19° ENE 02:00:35 10° NNE visible
09 Jul 3.9 03:35:00 41° W 03:35:00 41° W 03:39:22 10° NNW visible
10 Jul 3.9 02:41:04 52° E 02:41:22 53° ENE 02:46:12 10° N visible
10 Jul 5.3 04:20:05 14° W 04:20:05 14° W 04:21:59 10° WNW visible
11 Jul 5.8 01:47:10 14° E 01:48:21 15° ENE 01:51:17 10° NNE visible
11 Jul 3.7 03:26:11 50° W 03:26:11 50° W 03:30:41 10° NNW visible
12 Jul 4.3 02:32:16 42° E 02:32:35 42° ENE 02:37:16 10° N visible
12 Jul 5.1 04:11:17 17° W 04:11:17 17° W 04:13:49 10° NW visible
13 Jul 6.0 01:38:22 11° E 01:39:37 12° ENE 01:41:45 10° NE visible
13 Jul 3.5 03:17:22 62° WNW 03:17:22 62° WNW 03:21:56 10° NNW visible
14 Jul 4.7 02:23:28 34° E 02:23:49 34° ENE 02:28:17 10° N visible
14 Jul 4.9 04:02:28 21° W 04:02:28 21° W 04:05:27 10° NW visible
15 Jul 3.4 03:08:34 74° NW 03:08:34 74° NW 03:13:09 10° NNW visible
